Location: *
(45.5667°S, 177.5167°W)
Time: 16:23:28
(UTC+00:00)

SJ 16-02 - Pass Details

Date: 29 May 2022
Orbit: 604 x 615 km, 75.0° (Epoch: 28 June)

Event Time Altitude Azimuth Distance (km) Brightness Sun altitude
Rises 07:09:25 0° 209° (SSW) 2,914 5.1 -29.4°
Reaches altitude 10° 07:11:50 10° 218° (SW) 1,998 4.4 -29.8°
Maximum altitude 07:15:50 33° 281° (W) 1,042 3.0 -30.5°
Enters shadow 07:16:44 30° 306° (NW) 1,109 3.0 -30.7°
